Location: Mercogliano
(40.9167°N, 14.7333°E)
Time: 14:42:58
(UTC+00:00)

Cosmos 2150 Rocket - Pass Details

Date: 18 September 2020
Orbit: 749 x 808 km, 74.0° (Epoch: 29 October)

Event Time Altitude Azimuth Distance (km) Brightness Sun altitude
Rises 18:44:00 0° 193° (SSW) 3,248 7.2 -19.2°
Reaches altitude 10° 18:46:21 10° 192° (SSW) 2,333 6.4 -19.6°
Maximum altitude 18:51:40 78° 107° (ESE) 816 3.9 -20.6°
Drops below altitude 10° 18:57:05 10° 22° (NNE) 2,384 6.5 -21.5°
Sets 18:59:31 0° 21° (NNE) 3,324 7.3 -22.0°
